| time (UTC) | temp F | wind direction | speed MPH | gust MPH | rain 1hr in | rain 24hr in | rain mn in | humidity % | barometer mb |
| 20260504174005 | 82 | 168 | 4.0 | 8.0 | 0.00 | 0.00 | 0.00 | 49 | 1013.6 |
| 20260504173501 | 82 | 218 | 5.0 | 8.0 | 0.00 | 0.00 | 0.00 | 49 | 1013.4 |
| 20260504172959 | 80 | 192 | 4.0 | 7.0 | 0.00 | 0.00 | 0.00 | 52 | 1013.5 |
| 20260504172454 | 80 | 191 | 4.0 | 11.0 | 0.00 | 0.00 | 0.00 | 51 | 1013.6 |
| 20260504171951 | 80 | 199 | 6.0 | 14.0 | 0.00 | 0.00 | 0.00 | 52 | 1013.7 |
| 20260504171449 | 79 | 229 | 4.0 | 9.0 | 0.00 | 0.00 | 0.00 | 53 | 1013.7 |
| 20260504170945 | 80 | 168 | 4.0 | 10.0 | 0.00 | 0.00 | 0.00 | 51 | 1013.8 |
| 20260504170441 | 80 | 122 | 8.0 | 13.0 | 0.00 | 0.00 | 0.00 | 50 | 1014.1 |
| 20260504160401 | 78 | 191 | 10.0 | 13.0 | 0.00 | 0.00 | 0.00 | 56 | 1015.0 |
| 20260504150825 | 75 | 148 | 6.0 | 8.0 | 0.00 | 0.00 | 0.00 | 60 | 1014.9 |
| 20260504150322 | 75 | 122 | 9.0 | 14.0 | 0.00 | 0.00 | 0.00 | 60 | 1014.8 |
| 20260504141252 | 73 | 164 | 4.0 | 7.0 | 0.00 | 0.00 | 0.00 | 60 | 1015.0 |
| 20260504140749 | 72 | 127 | 5.0 | 9.0 | 0.00 | 0.00 | 0.00 | 60 | 1015.0 |
| 20260504140244 | 72 | 144 | 5.0 | 9.0 | 0.00 | 0.00 | 0.00 | 60 | 1014.8 |
| 20260504130713 | 68 | 110 | 2.0 | 4.0 | 0.00 | 0.00 | 0.00 | 66 | 1014.7 |
| 20260504130209 | 67 | 152 | 4.0 | 6.0 | 0.00 | 0.00 | 0.00 | 66 | 1014.8 |
| 20260504120133 | 64 | 156 | 3.0 | 3.0 | 0.00 | 0.00 | 0.00 | 71 | 1014.4 |
| 20260504110600 | 63 | 146 | 2.0 | 4.0 | 0.00 | 0.00 | 0.00 | 72 | 1014.3 |
| 20260504100522 | 63 | 150 | 1.0 | 2.0 | 0.00 | 0.00 | 0.00 | 72 | 1014.6 |
| 20260504081915 | 65 | 142 | 2.0 | 2.0 | 0.00 | 0.00 | 0.00 | 64 | 1015.2 |
| 20260504081412 | 65 | 179 | 1.0 | 3.0 | 0.00 | 0.00 | 0.00 | 64 | 1015.2 |
| 20260504080908 | 65 | 165 | 1.0 | 2.0 | 0.00 | 0.00 | 0.00 | 64 | 1015.6 |
| 20260504080405 | 65 | 152 | 2.0 | 3.0 | 0.00 | 0.00 | 0.00 | 64 | 1015.6 |
| 20260504070333 | 65 | 176 | 1.0 | 4.0 | 0.00 | 0.00 | 0.00 | 63 | 1016.4 |
| 20260504050721 | 66 | 164 | 3.0 | 4.0 | 0.00 | 0.00 | 0.00 | 63 | 1017.3 |
| 20260504050218 | 66 | 168 | 2.0 | 4.0 | 0.00 | 0.00 | 0.00 | 62 | 1017.1 |
| 20260504045715 | 66 | 157 | 4.0 | 7.0 | 0.00 | 0.00 | 0.00 | 62 | 1017.3 |
| 20260504045215 | 66 | 138 | 3.0 | 7.0 | 0.00 | 0.00 | 0.00 | 61 | 1017.4 |
| 20260504044713 | 66 | 166 | 2.0 | 4.0 | 0.00 | 0.00 | 0.00 | 61 | 1017.4 |
| 20260504044210 | 66 | 189 | 4.0 | 4.0 | 0.00 | 0.00 | 0.00 | 60 | 1017.5 |
| 20260504043707 | 67 | 200 | 2.0 | 3.0 | 0.00 | 0.00 | 0.00 | 60 | 1017.6 |
| 20260504043204 | 67 | 180 | 2.0 | 3.0 | 0.00 | 0.00 | 0.00 | 59 | 1017.3 |
| 20260504042702 | 67 | 165 | 3.0 | 4.0 | 0.00 | 0.00 | 0.00 | 59 | 1017.6 |
| 20260504042158 | 67 | 188 | 4.0 | 4.0 | 0.00 | 0.00 | 0.00 | 59 | 1017.4 |
| 20260504041654 | 67 | 195 | 5.0 | 6.0 | 0.00 | 0.00 | 0.00 | 58 | 1017.6 |
| 20260504041150 | 67 | 166 | 3.0 | 6.0 | 0.00 | 0.00 | 0.00 | 58 | 1017.5 |
| 20260504040647 | 67 | 147 | 4.0 | 4.0 | 0.00 | 0.00 | 0.00 | 58 | 1017.3 |
| 20260504040144 | 68 | 186 | 2.0 | 3.0 | 0.00 | 0.00 | 0.00 | 58 | 1017.4 |
| 20260504035641 | 68 | 194 | 3.0 | 6.0 | 0.00 | 0.00 | 0.00 | 57 | 1017.4 |
| 20260504035137 | 68 | 177 | 2.0 | 3.0 | 0.00 | 0.00 | 0.00 | 58 | 1017.3 |
| 20260504034635 | 68 | 164 | 3.0 | 6.0 | 0.00 | 0.00 | 0.00 | 57 | 1017.4 |
| 20260504034132 | 68 | 164 | 4.0 | 6.0 | 0.00 | 0.00 | 0.00 | 57 | 1017.8 |
| 20260504033629 | 68 | 169 | 1.0 | 4.0 | 0.00 | 0.00 | 0.00 | 57 | 1017.5 |
| 20260504033127 | 68 | 150 | 2.0 | 6.0 | 0.00 | 0.00 | 0.00 | 56 | 1017.5 |
| 20260504032624 | 69 | 189 | 5.0 | 7.0 | 0.00 | 0.00 | 0.00 | 56 | 1017.4 |
| 20260504032121 | 69 | 157 | 4.0 | 7.0 | 0.00 | 0.00 | 0.00 | 56 | 1017.4 |
| 20260504031618 | 69 | 214 | 3.0 | 6.0 | 0.00 | 0.00 | 0.00 | 55 | 1017.4 |
| 20260504031114 | 69 | 195 | 5.0 | 8.0 | 0.00 | 0.00 | 0.00 | 55 | 1017.6 |
| 20260504030611 | 70 | 179 | 3.0 | 6.0 | 0.00 | 0.00 | 0.00 | 53 | 1017.3 |
| 20260504030108 | 70 | 165 | 5.0 | 9.0 | 0.00 | 0.00 | 0.00 | 52 | 1017.2 |
| 20260504025604 | 70 | 155 | 2.0 | 7.0 | 0.00 | 0.00 | 0.00 | 52 | 1017.2 |
| 20260504025101 | 70 | 143 | 4.0 | 8.0 | 0.00 | 0.00 | 0.00 | 52 | 1017.1 |
| 20260504024558 | 70 | 150 | 3.0 | 8.0 | 0.00 | 0.00 | 0.00 | 52 | 1017.2 |
| 20260504024055 | 71 | 163 | 5.0 | 6.0 | 0.00 | 0.00 | 0.00 | 52 | 1017.2 |
| 20260504023552 | 71 | 123 | 4.0 | 7.0 | 0.00 | 0.00 | 0.00 | 51 | 1017.1 |
| 20260504023048 | 71 | 153 | 3.0 | 6.0 | 0.00 | 0.00 | 0.00 | 51 | 1017.2 |
| 20260504022543 | 71 | 143 | 3.0 | 4.0 | 0.00 | 0.00 | 0.00 | 51 | 1017.2 |
| 20260504022040 | 71 | 150 | 8.0 | 9.0 | 0.00 | 0.00 | 0.00 | 50 | 1017.0 |
| 20260504021538 | 71 | 135 | 4.0 | 10.0 | 0.00 | 0.00 | 0.00 | 50 | 1016.9 |
| 20260504021034 | 71 | 130 | 3.0 | 8.0 | 0.00 | 0.00 | 0.00 | 50 | 1016.8 |
| 20260504020531 | 71 | 157 | 6.0 | 8.0 | 0.00 | 0.00 | 0.00 | 50 | 1017.1 |
| 20260504020028 | 71 | 156 | 9.0 | 14.0 | 0.00 | 0.00 | 0.00 | 49 | 1016.9 |
| 20260504015524 | 72 | 155 | 6.0 | 8.0 | 0.00 | 0.00 | 0.00 | 49 | 1017.1 |
| 20260504015020 | 72 | 179 | 6.0 | 10.0 | 0.00 | 0.00 | 0.00 | 48 | 1017.1 |
| 20260504014516 | 72 | 165 | 6.0 | 8.0 | 0.00 | 0.00 | 0.00 | 48 | 1016.9 |
| 20260504014014 | 72 | 153 | 7.0 | 10.0 | 0.00 | 0.00 | 0.00 | 47 | 1017.0 |
| 20260504013512 | 73 | 196 | 5.0 | 14.0 | 0.00 | 0.00 | 0.00 | 47 | 1016.9 |
| 20260504013009 | 73 | 146 | 2.0 | 8.0 | 0.00 | 0.00 | 0.00 | 46 | 1016.9 |
| 20260504012506 | 73 | 178 | 6.0 | 11.0 | 0.00 | 0.00 | 0.00 | 46 | 1016.9 |
| 20260504012004 | 73 | 127 | 5.0 | 7.0 | 0.00 | 0.00 | 0.00 | 45 | 1016.7 |
| 20260504011500 | 73 | 164 | 4.0 | 9.0 | 0.00 | 0.00 | 0.00 | 45 | 1016.7 |
| 20260504010955 | 73 | 127 | 8.0 | 13.0 | 0.00 | 0.00 | 0.00 | 44 | 1016.8 |
| 20260504010452 | 73 | 182 | 5.0 | 13.0 | 0.00 | 0.00 | 0.00 | 44 | 1016.9 |
| 20260504005948 | 74 | 150 | 7.0 | 10.0 | 0.00 | 0.00 | 0.00 | 44 | 1016.8 |
| 20260504005445 | 74 | 212 | 6.0 | 8.0 | 0.00 | 0.00 | 0.00 | 44 | 1016.7 |
| 20260504004943 | 74 | 179 | 10.0 | 13.0 | 0.00 | 0.00 | 0.00 | 43 | 1016.8 |
| 20260504004440 | 74 | 194 | 7.0 | 10.0 | 0.00 | 0.00 | 0.00 | 43 | 1016.7 |
| 20260504003937 | 75 | 133 | 9.0 | 11.0 | 0.00 | 0.00 | 0.00 | 42 | 1016.8 |
| 20260504003433 | 75 | 170 | 6.0 | 13.0 | 0.00 | 0.00 | 0.00 | 42 | 1016.7 |
| 20260504002930 | 75 | 182 | 6.0 | 10.0 | 0.00 | 0.00 | 0.00 | 41 | 1016.6 |
| 20260504002427 | 75 | 112 | 3.0 | 7.0 | 0.00 | 0.00 | 0.00 | 41 | 1016.6 |
| 20260504001924 | 76 | 143 | 5.0 | 9.0 | 0.00 | 0.00 | 0.00 | 40 | 1016.7 |
| 20260504001422 | 76 | 144 | 6.0 | 10.0 | 0.00 | 0.00 | 0.00 | 40 | 1016.6 |
| 20260504000918 | 77 | 152 | 3.0 | 9.0 | 0.00 | 0.00 | 0.00 | 40 | 1016.7 |
| 20260504000416 | 77 | 157 | 4.0 | 8.0 | 0.00 | 0.00 | 0.00 | 39 | 1016.6 |
| 20260503235913 | 77 | 148 | 10.0 | 11.0 | 0.00 | 0.00 | 0.00 | 39 | 1016.6 |
| 20260503235410 | 77 | 160 | 5.0 | 8.0 | 0.00 | 0.00 | 0.00 | 39 | 1016.8 |
| 20260503234908 | 77 | 173 | 5.0 | 9.0 | 0.00 | 0.00 | 0.00 | 38 | 1016.7 |
| 20260503234405 | 77 | 159 | 7.0 | 10.0 | 0.00 | 0.00 | 0.00 | 39 | 1016.6 |
| 20260503233903 | 77 | 158 | 8.0 | 15.0 | 0.00 | 0.00 | 0.00 | 38 | 1016.8 |
| 20260503233359 | 78 | 178 | 8.0 | 11.0 | 0.00 | 0.00 | 0.00 | 38 | 1017.0 |
| 20260503232855 | 78 | 228 | 6.0 | 11.0 | 0.00 | 0.00 | 0.00 | 39 | 1016.9 |
| 20260503232353 | 78 | 217 | 6.0 | 13.0 | 0.00 | 0.00 | 0.00 | 38 | 1016.9 |
| 20260503231850 | 78 | 185 | 12.0 | 14.0 | 0.00 | 0.00 | 0.00 | 37 | 1016.9 |
| 20260503231347 | 78 | 160 | 10.0 | 13.0 | 0.00 | 0.00 | 0.00 | 36 | 1017.0 |
| 20260503230843 | 78 | 151 | 7.0 | 9.0 | 0.00 | 0.00 | 0.00 | 37 | 1017.0 |
| 20260503230340 | 78 | 209 | 8.0 | 13.0 | 0.00 | 0.00 | 0.00 | 37 | 1016.8 |
| 20260503225838 | 78 | 191 | 5.0 | 11.0 | 0.00 | 0.00 | 0.00 | 37 | 1017.0 |
| 20260503225334 | 79 | 187 | 6.0 | 9.0 | 0.00 | 0.00 | 0.00 | 36 | 1017.2 |
| 20260503224830 | 79 | 178 | 4.0 | 7.0 | 0.00 | 0.00 | 0.00 | 36 | 1017.1 |
| 20260503224328 | 80 | 130 | 9.0 | 10.0 | 0.00 | 0.00 | 0.00 | 35 | 1017.0 |
| 20260503223825 | 81 | 165 | 9.0 | 15.0 | 0.00 | 0.00 | 0.00 | 34 | 1017.0 |
| 20260503223323 | 81 | 138 | 4.0 | 8.0 | 0.00 | 0.00 | 0.00 | 33 | 1017.1 |
| 20260503222818 | 80 | 210 | 4.0 | 6.0 | 0.00 | 0.00 | 0.00 | 31 | 1017.3 |
| 20260503222317 | 81 | 150 | 5.0 | 8.0 | 0.00 | 0.00 | 0.00 | 30 | 1017.3 |
| 20260503221815 | 80 | 128 | 2.0 | 7.0 | 0.00 | 0.00 | 0.00 | 30 | 1017.4 |
| 20260503221313 | 82 | 124 | 2.0 | 10.0 | 0.00 | 0.00 | 0.00 | 29 | 1017.5 |
| 20260503220809 | 81 | 136 | 1.0 | 4.0 | 0.00 | 0.00 | 0.00 | 30 | 1017.5 |
| 20260503220306 | 80 | 204 | 5.0 | 8.0 | 0.00 | 0.00 | 0.00 | 29 | 1017.5 |
| 20260503215802 | 81 | 173 | 11.0 | 13.0 | 0.00 | 0.00 | 0.00 | 29 | 1017.7 |
| 20260503215259 | 81 | 126 | 9.0 | 11.0 | 0.00 | 0.00 | 0.00 | 29 | 1017.4 |
| 20260503214757 | 82 | 151 | 3.0 | 4.0 | 0.00 | 0.00 | 0.00 | 28 | 1017.5 |
| 20260503214254 | 81 | 195 | 2.0 | 3.0 | 0.00 | 0.00 | 0.00 | 30 | 1017.6 |
| 20260503213752 | 84 | 137 | 4.0 | 4.0 | 0.00 | 0.00 | 0.00 | 28 | 1017.8 |
| 20260503213249 | 82 | 203 | 0.0 | 2.0 | 0.00 | 0.00 | 0.00 | 29 | 1017.8 |
| 20260503212746 | 80 | 153 | 4.0 | 8.0 | 0.00 | 0.00 | 0.00 | 29 | 1018.0 |
| 20260503212244 | 82 | 178 | 2.0 | 7.0 | 0.00 | 0.00 | 0.00 | 29 | 1017.8 |
| 20260503211741 | 81 | 208 | 4.0 | 9.0 | 0.00 | 0.00 | 0.00 | 29 | 1018.2 |
| 20260503211237 | 82 | 199 | 4.0 | 9.0 | 0.00 | 0.00 | 0.00 | 29 | 1018.3 |
| 20260503210732 | 82 | 136 | 3.0 | 7.0 | 0.00 | 0.00 | 0.00 | 30 | 1018.4 |
| 20260503210230 | 82 | 186 | 4.0 | 6.0 | 0.00 | 0.00 | 0.00 | 30 | 1018.2 |
| 20260503205725 | 82 | 197 | 3.0 | 8.0 | 0.00 | 0.00 | 0.00 | 30 | 1018.3 |
| 20260503205222 | 83 | 171 | 4.0 | 6.0 | 0.00 | 0.00 | 0.00 | 29 | 1018.1 |
| 20260503204718 | 82 | 143 | 2.0 | 4.0 | 0.00 | 0.00 | 0.00 | 29 | 1018.3 |
| 20260503204216 | 82 | 120 | 5.0 | 8.0 | 0.00 | 0.00 | 0.00 | 30 | 1018.4 |
| 20260503203713 | 83 | 231 | 2.0 | 7.0 | 0.00 | 0.00 | 0.00 | 29 | 1018.4 |
| 20260503203211 | 83 | 97 | 2.0 | 3.0 | 0.00 | 0.00 | 0.00 | 29 | 1018.6 |
| 20260503202708 | 82 | 179 | 3.0 | 3.0 | 0.00 | 0.00 | 0.00 | 30 | 1018.6 |
| 20260503202206 | 82 | 167 | 3.0 | 8.0 | 0.00 | 0.00 | 0.00 | 30 | 1018.9 |
| 20260503201703 | 84 | 156 | 5.0 | 8.0 | 0.00 | 0.00 | 0.00 | 30 | 1018.8 |
| 20260503201200 | 83 | 161 | 3.0 | 6.0 | 0.00 | 0.00 | 0.00 | 30 | 1018.9 |
| 20260503200656 | 82 | 144 | 3.0 | 3.0 | 0.00 | 0.00 | 0.00 | 30 | 1019.1 |
| 20260503200153 | 82 | 146 | 4.0 | 13.0 | 0.00 | 0.00 | 0.00 | 30 | 1019.2 |
| 20260503195650 | 83 | 192 | 3.0 | 7.0 | 0.00 | 0.00 | 0.00 | 29 | 1019.0 |
| 20260503195147 | 82 | 236 | 2.0 | 4.0 | 0.00 | 0.00 | 0.00 | 31 | 1019.4 |
| 20260503194644 | 81 | 183 | 4.0 | 9.0 | 0.00 | 0.00 | 0.00 | 29 | 1019.3 |
| 20260503194139 | 81 | 113 | 4.0 | 8.0 | 0.00 | 0.00 | 0.00 | 30 | 1019.4 |
| 20260503193637 | 82 | 185 | 7.0 | 10.0 | 0.00 | 0.00 | 0.00 | 29 | 1019.3 |
| 20260503193132 | 82 | 164 | 5.0 | 8.0 | 0.00 | 0.00 | 0.00 | 29 | 1019.3 |
| 20260503192628 | 82 | 219 | 2.0 | 11.0 | 0.00 | 0.00 | 0.00 | 29 | 1019.5 |
| 20260503192124 | 82 | 150 | 5.0 | 9.0 | 0.00 | 0.00 | 0.00 | 30 | 1019.6 |
| 20260503191621 | 82 | 113 | 5.0 | 6.0 | 0.00 | 0.00 | 0.00 | 30 | 1019.9 |
| 20260503191118 | 81 | 114 | 5.0 | 9.0 | 0.00 | 0.00 | 0.00 | 30 | 1020.0 |
| 20260503190615 | 82 | 196 | 8.0 | 9.0 | 0.00 | 0.00 | 0.00 | 29 | 1019.8 |
| 20260503190112 | 82 | 210 | 8.0 | 9.0 | 0.00 | 0.00 | 0.00 | 29 | 1019.8 |
| 20260503185608 | 82 | 181 | 3.0 | 8.0 | 0.00 | 0.00 | 0.00 | 29 | 1020.2 |
| 20260503185108 | 83 | 231 | 4.0 | 9.0 | 0.00 | 0.00 | 0.00 | 29 | 1019.9 |
| 20260503184604 | 84 | 15 | 3.0 | 6.0 | 0.00 | 0.00 | 0.00 | 28 | 1020.1 |
| 20260503184100 | 83 | 167 | 2.0 | 6.0 | 0.00 | 0.00 | 0.00 | 29 | 1020.4 |
| 20260503183557 | 84 | 142 | 2.0 | 4.0 | 0.00 | 0.00 | 0.00 | 28 | 1020.4 |
| 20260503183054 | 83 | 175 | 0.0 | 7.0 | 0.00 | 0.00 | 0.00 | 30 | 1020.4 |
| 20260503182553 | 82 | 161 | 1.0 | 3.0 | 0.00 | 0.00 | 0.00 | 30 | 1020.5 |
| 20260503182050 | 83 | 173 | 2.0 | 6.0 | 0.00 | 0.00 | 0.00 | 30 | 1020.5 |
| 20260503181547 | 82 | 169 | 1.0 | 2.0 | 0.00 | 0.00 | 0.00 | 31 | 1020.5 |
| 20260503181043 | 82 | 42 | 4.0 | 7.0 | 0.00 | 0.00 | 0.00 | 30 | 1020.6 |
| 20260503180541 | 82 | 131 | 2.0 | 2.0 | 0.00 | 0.00 | 0.00 | 31 | 1020.7 |
| 20260503180038 | 81 | 168 | 2.0 | 4.0 | 0.00 | 0.00 | 0.00 | 31 | 1020.8 |
| 20260503175535 | 81 | 113 | 3.0 | 4.0 | 0.00 | 0.00 | 0.00 | 32 | 1021.0 |
| 20260503175033 | 82 | 132 | 2.0 | 8.0 | 0.00 | 0.00 | 0.00 | 32 | 1021.0 |
| 20260503174530 | 82 | 157 | 1.0 | 6.0 | 0.00 | 0.00 | 0.00 | 32 | 1021.2 |